Location: Buffign�court
(47.8126°N, 6.0176°E)
Time: 23:58:48
(UTC+00:00)

USA 81 - Visible Passes

Search period start: 23 October 2021 00:00
Search period end: 02 November 2021 00:00
Orbit: 786 x 787 km, 85.0° (Epoch: 05 September)

Date Brightness Start Highest point End Pass type
(mag) Time Alt. Az. Time Alt. Az. Time Alt. Az.
25 Oct 7.1 05:09:31 10° NE 05:10:58 11° ENE 05:12:25 10° ENE visible
28 Oct 6.8 05:16:10 10° NNE 05:19:48 18° ENE 05:23:24 10° ESE visible
28 Oct 6.7 20:08:19 11° N 20:08:19 11° N 20:08:29 10° N visible
29 Oct 7.1 04:46:42 10° NE 04:48:29 12° ENE 04:50:16 10° E visible
29 Oct 6.5 19:37:17 12° N 19:37:17 12° N 19:37:43 10° N visible
30 Oct 6.3 19:06:10 13° N 19:06:10 13° N 19:06:47 10° N visible
31 Oct 6.1 05:23:53 10° NNE 05:28:29 30° ENE 05:33:05 10° SE visible
31 Oct 6.1 18:34:55 14° NNE 18:34:55 14° NNE 18:35:42 10° NNE visible
31 Oct 6.6 20:15:32 14° NNW 20:15:32 14° NNW 20:16:30 10° NNW visible
01 Nov 6.8 04:53:33 10° NNE 04:57:18 19° ENE 05:01:01 10° ESE visible
01 Nov 5.9 18:03:25 15° NE 18:03:25 15° NE 18:04:24 10° NNE visible
01 Nov 6.0 19:44:00 21° NNW 19:44:00 21° NNW 19:45:56 10° N visible
